Grand Forks AFB, ND

10:35 PM CDT on April 21, 2018 (GMT -0500)
Grand Forks Air Force Base

Weather History for KRDR - May, 2013

Change the Weather History Date:

Monday, May 27, 2013

  Actual Average Record
Temperature  
Mean Temperature 60 °F -  
Max Temperature 67 °F 68 °F 87 °F (2006)
Min Temperature 53 °F 44 °F 30 °F (2008)
Degree Days  
Heating Degree Days 6    
Growing Degree Days 10 (Base 50)    
Moisture  
Dew Point 52 °F    
Average Humidity 72    
Maximum Humidity 89    
Minimum Humidity 59    
Precipitation  
Precipitation 0.00 in - - ()
Sea Level Pressure  
Sea Level Pressure 29.88 in    
Wind  
Wind Speed 8 mph (SSE)    
Max Wind Speed 17 mph    
Max Gust Speed 20 mph    
Visibility 10 miles    
Events      
Averages and records for this station are not official NWS values.
T = Trace of Precipitation, MM = Missing Value Source: NWS Daily Summary

Daily Weather History Graph

Daily Weather History Graph

Search for Another Location

Airport or City:

Astronomy

May. 27, 2013 Rise Set
Actual Time 5:37 AM CDT 9:16 PM CDT
Civil Twilight 4:58 AM CDT 9:55 PM CDT
Nautical Twilight 4:06 AM CDT 10:48 PM CDT
Astronomical Twilight 2:53 AM CDT 12:02 AM CDT
Moon 11:50 PM CDT (5/27) 8:20 AM CDT (5/27)
Length of Visible Light 16h 56m
Length of Day
15h 38m
Waning Gibbous, 91% of the Moon is Illuminated
May 27
Waning Gibbous
May 31
Last Quarter
Jun 8
New
Jun 16
First Quarter
Jun 23
Full

Hourly Weather History & Observations

Time (CDT) Temp. Dew Point Humidity Pressure Visibility Wind Dir Wind Speed Gust Speed Precip Events Conditions
3:56 AM 55.4 °F 48.2 °F 77% 29.99 in 10.0 mi South 6.9 mph - N/A   Overcast
4:58 AM 54.3 °F 48.2 °F 80% 30.00 in 10.0 mi South 4.6 mph - N/A   Overcast
5:03 AM 53.6 °F 48.2 °F 82% 29.98 in 10.0 mi South 3.5 mph - N/A   Overcast
5:08 AM 53.6 °F 48.2 °F 82% 29.98 in 10.0 mi South 3.5 mph - N/A   Overcast
6:18 AM 53.6 °F 50.0 °F 88% 29.98 in 10.0 mi South 8.1 mph - N/A   Overcast
6:58 AM 54.0 °F 50.9 °F 89% 30.00 in 10.0 mi SE 5.8 mph - N/A   Overcast
7:58 AM 55.0 °F 50.2 °F 84% 29.98 in 10.0 mi ESE 5.8 mph - N/A   Overcast
8:58 AM 57.0 °F 49.5 °F 76% 29.96 in 10.0 mi ESE 5.8 mph - N/A   Overcast
9:56 AM 59.0 °F 48.2 °F 67% 29.92 in 10.0 mi SE 9.2 mph - N/A   Overcast
10:58 AM 61.0 °F 47.3 °F 61% 29.94 in 10.0 mi SE 12.7 mph - N/A   Overcast
11:03 AM 60.8 °F 48.2 °F 63% 29.92 in 10.0 mi SE 12.7 mph - N/A   Overcast
11:58 AM 62.4 °F 49.3 °F 62% 29.92 in 10.0 mi SE 10.4 mph - N/A   Overcast
12:08 PM 62.6 °F 50.0 °F 63% 29.91 in 10.0 mi South 13.8 mph - N/A   Overcast
12:38 PM 64.4 °F 50.0 °F 59% 29.88 in 10.0 mi South 13.8 mph 19.6 mph N/A   Overcast
12:53 PM 62.6 °F 50.0 °F 63% 29.87 in 10.0 mi SSE 10.4 mph - N/A   Overcast
12:58 PM 63.7 °F 51.3 °F 64% 29.89 in 10.0 mi SSE 17.3 mph - N/A   Overcast
1:58 PM 64.2 °F 52.3 °F 65% 29.88 in 10.0 mi South 15.0 mph - N/A   Overcast
2:18 PM 66.2 °F 53.6 °F 64% 29.85 in 10.0 mi South 12.7 mph - N/A   Scattered Clouds
2:58 PM 66.6 °F 53.8 °F 63% 29.86 in 10.0 mi South 15.0 mph - N/A   Mostly Cloudy
3:18 PM 66.2 °F 53.6 °F 64% 29.84 in 10.0 mi South 12.7 mph - N/A   Overcast
3:58 PM 66.6 °F 53.8 °F 63% 29.85 in 10.0 mi SSE 10.4 mph - N/A   Overcast
4:58 PM 65.5 °F 54.0 °F 66% 29.85 in 10.0 mi South 10.4 mph - N/A   Mostly Cloudy
5:58 PM 66.2 °F 53.8 °F 64% 29.84 in 10.0 mi South 10.4 mph - N/A   Mostly Cloudy
6:58 PM 65.7 °F 54.3 °F 67% 29.82 in 10.0 mi SSE 8.1 mph - N/A   Overcast
7:02 PM 66.2 °F 55.4 °F 68% 29.80 in 10.0 mi South 5.8 mph - N/A   Light Drizzle
7:15 PM 64.4 °F 55.4 °F 73% 29.79 in 10.0 mi SSE 5.8 mph - N/A   Mostly Cloudy
7:58 PM 64.2 °F 56.7 °F 76% 29.81 in 10.0 mi South 3.5 mph - 0.00 in   Mostly Cloudy
8:58 PM 61.3 °F 57.0 °F 86% 29.80 in 10.0 mi South 4.6 mph - N/A   Scattered Clouds
9:58 PM 63.5 °F 56.7 °F 78% 29.77 in 10.0 mi South 8.1 mph - N/A   Overcast
10:28 PM 62.6 °F 57.2 °F 82% 29.79 in 10.0 mi South 9.2 mph - N/A   Overcast
10:58 PM 62.8 °F 56.3 °F 79% 29.81 in 10.0 mi SSW 9.2 mph - N/A   Overcast
11:03 PM 62.6 °F 55.4 °F 77% 29.79 in 10.0 mi SSW 8.1 mph - N/A   Overcast
11:08 PM 62.6 °F 55.4 °F 77% 29.79 in 10.0 mi South 9.2 mph - N/A   Overcast
11:13 PM 62.6 °F 55.4 °F 77% 29.79 in 10.0 mi South 8.1 mph - N/A   Overcast
11:58 PM 60.8 °F 57.2 °F 88% 29.79 in 10.0 mi South 5.8 mph - N/A   Overcast